map of MGSJ home
MGSJ - Airport
Location
City:  Puerto San JosÚ, Escuintla, Guatemala
Name:San JosÚ
ICAO:MGSJ

Details
Type:Airport (Aerodrome, Airfield)
Use:Public/Civil, Military
Latitude:13░56'10"N (13.936192)
Longitude:90░50'09"W (-90.835832)
Datum:WGS 1984
Elevation:29 ft (9 m)
Variation:1.16░E (WMM2015v2 magnetic declination)
-0.12░ annual change
Runways:1
Longest:6595 × 150 ft (2010 × 45.5 m), paved

Time
Time Zone:UTC-6
Local Time:

Weather
METAR:MGSJ 041400Z 00000KT 8000 BKN060 23/21 Q1013 A2991 BR
TAF:MGSJ 031700Z 0318/0418 18008KT 8000 FEW020 TX32/0320Z TN21/0412Z
TEMPO 0318/0402 24012KT SCT020TCU
BECMG 0400/0402 00000KT NSC
TEMPO 0404/0414 CAVOK
BECMG 0416/1418 18008KT

Related Locations
Nearby:
Farthest:CCK: 11918 mi / 19180 km
West Island (Pulau Panjang) [Cocos (Keeling) Islands], CC

Find:

   beyond  
but within

Other Information
Maps:
NOTAMs:
Links:
Sources:

  
  • flag of Guatemala
  • flag of Escuintla
  

Sectional Chart

Flight Planning
at skyvector.com

Satellite Image

Google Maps Satellite view

 

Copyright © 2004-2019 Karl L. Swartz. All rights reserved.
The Great Circle Mapper name and logo are trademarks of the Great Circle Mapper.
All other trademarks mentioned herein belong to their respective owners.
Please see credits for attibutions and further copyright information.

  Follow gcmap on Facebook Follow gcmap on Twitter GCmap on LinkedIn

hCard Microformat

Geo Microformat